CW6723 Weather Reports


time (UTC)temp
C
wind
direction
speed
KPH
gust
KPH
rain 1hr
cm
rain 24hr
cm
rain mn
cm
humidity
%
barometer
mb
20260507001537 19 308 8.0 19.3 0.00 0.00 0.00 67 1016.2
20260507000036 20 312 4.8 16.1 0.00 0.00 0.00 67 1016.3
20260506234534 20 331 8.0 16.1 0.00 0.00 0.00 66 1016.2
20260506233034 20 309 12.9 17.7 0.00 0.00 0.00 65 1016.4
20260506231533 21 288 4.8 16.1 0.00 0.00 0.00 64 1016.3
20260506230030 21 317 6.4 17.7 0.00 0.00 0.00 64 1016.4
20260506224530 20 302 6.4 17.7 0.00 0.00 0.00 64 1016.6
20260506223026 21 360 9.7 17.7 0.00 0.00 0.00 62 1016.8
20260506221524 21 309 8.0 17.7 0.00 0.00 0.00 63 1017.0
20260506220033 22 324 4.8 14.5 0.00 0.00 0.00 61 1017.1
20260506214522 22 270 3.2 11.3 0.00 0.00 0.00 63 1017.3
20260506213022 21 288 4.8 12.9 0.00 0.00 0.00 65 1017.3
20260506211524 21 109 3.2 9.7 0.00 0.00 0.00 65 1017.4
20260506210024 21 300 3.2 11.3 0.00 0.00 0.00 66 1017.5
20260506204518 21 263 3.2 9.7 0.00 0.00 0.00 64 1017.6
20260506203016 20 319 1.6 8.0 0.00 0.00 0.00 66 1017.8
20260506201526 21 216 1.6 9.7 0.00 0.00 0.00 64 1018.0
20260506200012 19 248 1.6 11.3 0.00 0.00 0.00 67 1018.2
20260506194510 19 285 3.2 11.3 0.00 0.00 0.00 69 1018.4
20260506193010 20 329 6.4 14.5 0.00 0.00 0.00 68 1018.5
20260506191508 18 342 3.2 14.5 0.00 0.00 0.00 68 1018.7
20260506190007 18 277 3.2 8.0 0.00 0.00 0.00 69 1018.7
20260506184510 18 275 1.6 6.4 0.00 0.00 0.00 71 1018.7
20260506183001 18 350 3.2 9.7 0.00 0.00 0.00 71 1018.8
20260506181602 18 194 3.2 9.7 0.00 0.00 0.00 70 1018.8
20260506180057 17 341 1.6 6.4 0.00 0.00 0.00 72 1018.8
20260506174554 16 339 1.6 9.7 0.00 0.00 0.00 72 1018.9
20260506173056 17 212 3.2 12.9 0.00 0.00 0.00 73 1018.9
20260506171601 16 244 1.6 9.7 0.00 0.00 0.00 74 1019.0
20260506170056 16 110 3.2 8.0 0.00 0.00 0.00 73 1019.0
20260506164550 16 201 0.0 6.4 0.00 0.00 0.00 77 1018.9
20260506163046 15 331 0.0 4.8 0.00 0.00 0.00 78 1019.1
20260506161546 15 238 0.0 3.2 0.00 0.00 0.00 79 1019.0
20260506160057 15 240 0.0 3.2 0.00 0.00 0.00 79 1019.0
20260506154540 14 240 0.0 0.0 0.00 0.00 0.00 79 1019.0
20260506153036 13 5 0.0 1.6 0.00 0.00 0.00 79 1019.0
20260506151541 13 351 0.0 3.2 0.00 0.00 0.00 80 1019.0
20260506150034 13 323 0.0 3.2 0.00 0.00 0.00 80 1019.0
20260506144531 -17 284 0.0 0.0 0.00 0.00 0.00 1018.9
20260506143026 -17 309 0.0 0.0 0.00 0.00 0.00 1018.8
20260506141522 -17 329 0.0 0.0 0.00 0.00 0.00 1018.7
20260506140025 -17 329 0.0 0.0 0.00 0.00 0.00 1018.5
20260506134513 -17 329 0.0 0.0 0.00 0.00 0.00 1018.3
20260506133013 -17 311 0.0 0.0 0.00 0.00 0.00 1018.3
20260506131507 -17 316 0.0 4.8 0.00 0.00 0.00 1018.2
20260506130101 -17 284 0.0 3.2 0.00 0.00 0.00 1018.1
20260506124555 -17 313 0.0 3.2 0.00 0.00 0.00 1018.0
20260506123053 12 303 0.0 6.4 0.00 0.00 0.00 82 1017.9
20260506121556 12 304 0.0 3.2 0.00 0.00 0.00 82 1017.9
20260506120053 12 314 1.6 4.8 0.00 0.00 0.00 82 1017.8
20260506114553 12 319 1.6 6.4 0.00 0.00 0.00 82 1017.8
20260506113047 12 313 1.6 4.8 0.00 0.00 0.00 82 1017.6
20260506111546 12 332 1.6 6.4 0.00 0.00 0.00 82 1017.5
20260506110044 12 309 1.6 4.8 0.00 0.00 0.00 82 1017.4
20260506104545 12 337 3.2 8.0 0.00 0.00 0.00 81 1017.3
20260506103041 12 335 1.6 6.4 0.00 0.00 0.00 82 1017.3
20260506101544 12 288 1.6 6.4 0.00 0.00 0.00 82 1017.2
20260506100051 12 342 1.6 6.4 0.00 0.00 0.00 83 1017.2
20260506094539 12 329 3.2 6.4 0.00 0.00 0.00 83 1017.3
20260506093038 12 321 0.0 3.2 0.00 0.00 0.00 83 1017.3
20260506091538 12 322 1.6 6.4 0.00 0.00 0.00 83 1017.2
20260506090037 12 326 0.0 4.8 0.00 0.00 0.00 82 1017.2
20260506084540 12 301 3.2 6.4 0.00 0.00 0.00 83 1017.3
20260506083034 12 329 0.0 3.2 0.00 0.00 0.00 82 1017.2
20260506081535 12 302 1.6 6.4 0.00 0.00 0.00 82 1017.3
20260506073029 12 323 3.2 8.0 0.00 0.00 0.00 83 1017.0
20260506071527 12 319 0.0 4.8 0.00 0.00 0.00 83 1016.9
20260506061522 12 293 1.6 6.4 0.00 0.00 0.00 82 1016.6
20260506044526 13 298 1.6 6.4 0.00 0.00 0.00 80 1016.1
20260506043012 13 227 1.6 8.0 0.00 0.00 0.00 80 1015.9
20260506041512 13 280 1.6 6.4 0.00 0.00 0.00 80 1015.7
20260506040009 13 323 1.6 6.4 0.00 0.00 0.00 81 1015.6
20260506034508 13 323 0.0 6.4 0.00 0.00 0.00 81 1015.4
20260506033005 13 284 0.0 6.4 0.00 0.00 0.00 80 1015.1
20260506031515 13 306 1.6 4.8 0.00 0.00 0.00 79 1014.9
20260506030003 13 343 1.6 6.4 0.00 0.00 0.00 78 1014.6
20260506024508 14 232 1.6 11.3 0.00 0.00 0.00 77 1014.7
20260506023002 15 291 3.2 11.3 0.00 0.00 0.00 77 1014.6
20260506021608 15 342 1.6 6.4 0.00 0.00 0.00 76 1014.5
20260506020059 15 292 4.8 14.5 0.00 0.00 0.00 75 1014.3
20260506014612 15 324 3.2 9.7 0.00 0.00 0.00 75 1014.2
20260506013100 15 236 1.6 16.1 0.00 0.00 0.00 74 1014.2
20260506011557 15 300 3.2 9.7 0.00 0.00 0.00 74 1014.2
20260506010106 15 294 1.6 9.7 0.00 0.00 0.00 75 1014.2
20260506004555 15 309 1.6 9.7 0.00 0.00 0.00 74 1014.2
20260506003055 15 290 3.2 8.0 0.00 0.00 0.00 75 1014.1